GW0435 Weather Reports


time (UTC)temp
C
wind
direction
speed
KPH
gust
KPH
rain 1hr
cm
rain 24hr
cm
rain mn
cm
humidity
%
barometer
mb
20260505213048 15 217 8.0 25.7 0.00 0.00 0.00 41 997.5
20260505211545 14 219 11.3 25.7 0.00 0.00 0.00 42 997.7
20260505210049 14 220 9.7 25.7 0.00 0.00 0.00 43 997.8
20260505204550 13 226 12.9 25.7 0.00 0.00 0.00 44 998.3
20260505203038 13 226 16.1 27.4 0.00 0.00 0.00 45 998.5
20260505201540 13 226 6.4 20.9 0.00 0.00 0.00 48 998.7
20260505200037 12 226 11.3 25.7 0.00 0.00 0.00 50 998.6
20260505194537 11 226 11.3 22.5 0.00 0.00 0.00 52 998.5
20260505193042 12 223 11.3 22.5 0.00 0.00 0.00 48 998.5
20260505191536 12 217 9.7 20.9 0.00 0.00 0.00 49 998.7
20260505190039 11 211 9.7 32.2 0.00 0.00 0.00 57 998.7
20260505184534 13 222 14.5 29.0 0.00 0.00 0.00 41 998.4
20260505183045 13 252 11.3 17.7 0.00 0.00 0.00 39 998.4
20260505181532 13 276 9.7 25.7 0.00 0.00 0.00 38 998.4
20260505180032 13 296 9.7 20.9 0.00 0.00 0.00 36 998.4
20260505174530 12 303 9.7 17.7 0.00 0.00 0.00 38 998.5
20260505173029 13 304 9.7 16.1 0.00 0.00 0.00 37 998.7
20260505171528 12 304 3.2 9.7 0.00 0.00 0.00 39 998.8
20260505170029 11 304 1.6 14.5 0.00 0.00 0.00 41 998.7
20260505164531 11 304 8.0 17.7 0.00 0.00 0.00 42 999.0
20260505163021 11 306 8.0 17.7 0.00 0.00 0.00 43 999.2
20260505161520 10 312 9.7 14.5 0.00 0.00 0.00 45 999.3
20260505153016 10 312 4.8 17.7 0.00 0.00 0.00 45 999.4
20260505151515 11 313 8.0 17.7 0.00 0.00 0.00 44 999.4
20260505124503 10 321 6.4 14.5 0.00 0.00 0.00 47 999.8
20260505123101 9 300 4.8 9.7 0.00 0.00 0.00 43 999.7
20260505121555 8 300 6.4 12.9 0.00 0.00 0.00 43 999.3
20260505114552 9 300 0.0 6.4 0.00 0.00 0.00 41 999.2
20260505113109 8 300 1.6 6.4 0.00 0.00 0.00 42 999.5
20260505111547 9 300 1.6 6.4 0.00 0.00 0.00 41 999.4
20260505101542 10 300 0.0 4.8 0.00 0.00 0.00 37 999.1
20260505100038 10 300 1.6 8.0 0.00 0.00 0.00 36 998.9
20260505094537 11 300 4.8 12.9 0.00 0.00 0.00 36 999.0
20260505093035 10 301 8.0 12.9 0.00 0.00 0.00 37 999.1
20260505091533 10 301 1.6 9.7 0.00 0.00 0.00 38 999.1
20260505090031 11 301 3.2 8.0 0.00 0.00 0.00 37 999.2
20260505084542 10 301 1.6 6.4 0.00 0.00 0.00 35 999.4
20260505083027 11 301 0.0 4.8 0.00 0.00 0.00 34 999.6
20260505081525 11 301 0.0 3.2 0.00 0.00 0.00 33 1000.0
20260505080023 11 301 0.0 3.2 0.00 0.00 0.00 32 1000.0
20260505074520 12 301 0.0 4.8 0.00 0.00 0.00 31 1000.0
20260505073017 12 301 1.6 8.0 0.00 0.00 0.00 30 999.8
20260505071513 13 301 3.2 11.3 0.00 0.00 0.00 29 999.5
20260505070011 13 298 8.0 19.3 0.00 0.00 0.00 28 999.7
20260505064508 13 298 9.7 19.3 0.00 0.00 0.00 29 999.7
20260505063006 13 298 3.2 9.7 0.00 0.00 0.00 30 999.7
20260505061507 13 298 3.2 8.0 0.00 0.00 0.00 30 999.7
20260505060003 13 298 1.6 11.3 0.00 0.00 0.00 30 999.8
20260505054501 13 298 6.4 12.9 0.00 0.00 0.00 30 999.6
20260505053001 13 302 3.2 14.5 0.00 0.00 0.00 30 999.6
20260505051600 14 303 1.6 8.0 0.00 0.00 0.00 31 999.7
20260505050109 14 303 4.8 9.7 0.00 0.00 0.00 30 999.8
20260505041558 14 303 0.0 0.0 0.00 0.00 0.00 29 1000.1
20260505040059 14 303 0.0 11.3 0.00 0.00 0.00 28 1000.2
20260505034617 14 303 1.6 4.8 0.00 0.00 0.00 27 1000.2
20260505033058 15 303 0.0 9.7 0.00 0.00 0.00 26 1000.1
20260505031558 15 303 1.6 9.7 0.00 0.00 0.00 25 999.9
20260505030059 15 303 4.8 14.5 0.00 0.00 0.00 24 999.6
20260505024557 16 302 4.8 17.7 0.00 0.00 0.00 23 999.4
20260505023100 16 301 6.4 14.5 0.00 0.00 0.00 22 999.3
20260505021556 16 300 6.4 14.5 0.00 0.00 0.00 21 999.1
20260505020058 16 300 8.0 17.7 0.00 0.00 0.00 19 999.2
20260505014554 17 296 6.4 20.9 0.00 0.00 0.00 19 999.0
20260505013054 17 286 11.3 25.7 0.00 0.00 0.00 18 998.7
20260505011609 17 284 8.0 17.7 0.00 0.00 0.00 18 998.7
20260505010054 17 272 6.4 20.9 0.00 0.00 0.00 17 998.7
20260505004602 18 295 11.3 20.9 0.00 0.00 0.00 17 998.8
20260505003055 18 268 9.7 22.5 0.00 0.00 0.00 16 999.0
20260505001605 18 285 11.3 20.9 0.00 0.00 0.00 16 998.8
20260505000105 18 263 11.3 22.5 0.00 0.00 0.00 17 999.1
20260504234555 18 242 6.4 16.1 0.00 0.00 0.00 18 999.2
20260504233103 18 289 8.0 20.9 0.00 0.00 0.00 18 999.1
20260504231549 19 217 8.0 22.5 0.00 0.00 0.00 18 999.1
20260504230047 19 299 12.9 22.5 0.00 0.00 0.00 18 999.4
20260504224546 18 244 9.7 27.4 0.00 0.00 0.00 18 999.5
20260504223046 18 302 14.5 25.7 0.00 0.00 0.00 18 999.5
20260504221544 18 288 8.0 22.5 0.00 0.00 0.00 16 999.8
20260504220041 18 249 8.0 27.4 0.00 0.00 0.00 16 1000.1